Theta_e
327 323 324 321 308 308 304 305 310 309 311 317 319 317 315 318 313 312 334 337 339 339 339 342 345 345 344 343 342 343 345 346 347 347 347 346 346 346 345 345 344 343 339 339 339 338 337 337 336
322 321 323 317 303 301 303 309 308 311 315 318 318 318 315 316 325 328 331 338 338 337 336 339 343 346 343 342 342 343 343 345 346 346 347 346 345 345 344 343 343 341 338 338 338 337 336 335 334
320 320 316 311 303 301 303 309 312 314 317 317 315 320 318 319 327 328 336 338 337 337 335 339 343 346 344 343 343 342 343 343 344 343 343 345 344 343 343 341 342 340 338 337 337 336 334 333 335
320 320 317 306 300 304 306 310 314 314 314 317 317 314 323 329 329 335 337 337 336 337 336 341 345 346 344 344 343 342 342 340 340 340 341 341 342 342 341 339 339 338 337 337 336 335 333 333 335
320 318 310 306 302 305 307 312 315 312 313 314 317 313 319 329 335 337 337 335 336 337 337 340 343 344 344 343 343 341 342 341 341 340 339 340 340 340 339 337 337 337 336 334 335 334 332 332 334
313 315 305 304 304 305 307 312 315 314 314 315 314 315 320 333 335 336 337 335 337 338 338 339 337 340 342 342 342 342 342 342 342 341 340 340 339 339 338 336 336 335 335 334 334 332 331 332 332
311 310 307 307 306 302 307 312 314 313 313 313 317 312 322 329 335 337 337 335 336 340 338 338 338 338 336 338 339 340 341 341 342 340 338 338 337 337 337 336 334 334 334 333 333 331 330 331 330
312 311 308 309 306 305 309 311 315 314 312 319 319 310 316 328 334 337 336 334 335 339 336 337 338 337 336 337 333 335 336 337 337 335 333 332 331 332 332 331 333 332 331 331 332 330 328 327 326
311 305 304 307 307 309 310 309 312 314 313 316 318 316 324 333 333 334 333 332 333 335 337 336 337 337 336 335 333 331 331 331 331 330 328 328 331 331 331 328 331 330 329 329 329 328 326 325 324
308 306 306 312 312 310 310 310 310 309 312 312 316 322 330 332 330 330 329 328 329 332 333 337 337 336 336 334 335 336 335 333 333 333 333 332 331 332 330 326 327 329 328 327 326 324 324 324 327
304 305 311 308 310 308 308 309 311 309 308 312 313 318 328 329 329 329 329 329 329 329 333 335 336 337 336 335 336 336 335 334 333 333 332 331 331 330 331 330 328 329 323 326 326 326 326 327 326
301 305 307 309 307 306 306 309 307 310 311 312 317 321 327 327 327 328 327 328 328 329 330 333 335 336 337 336 336 336 334 333 332 332 332 330 330 331 330 329 328 328 327 327 327 327 327 326 325
300 305 307 307 306 306 306 306 307 309 314 311 315 322 324 326 328 329 330 330 330 329 330 332 333 334 334 333 335 335 335 333 332 331 331 330 329 329 329 329 328 327 326 324 325 325 325 325 325
307 305 305 305 305 304 303 305 304 308 313 310 314 319 323 324 327 328 329 329 330 330 330 331 333 336 334 333 333 334 335 334 334 333 332 331 331 330 329 329 328 328 326 324 323 324 324 324 324
303 300 301 302 304 303 304 301 300 308 311 309 313 317 320 322 326 326 329 330 331 332 331 330 331 334 334 334 332 333 334 333 333 333 333 332 331 331 330 330 329 329 328 326 324 323 323 322 322
297 300 297 305 303 303 302 299 305 308 308 308 311 314 318 321 323 326 328 329 332 332 332 331 330 332 333 333 334 332 333 332 332 332 333 333 332 332 331 330 330 331 330 328 326 326 324 324 324
297 295 297 299 302 301 300 298 305 309 307 308 310 312 316 318 322 325 328 329 330 331 333 333 332 331 332 333 333 334 333 332 332 332 332 333 333 332 331 331 331 331 329 326 325 324 325 324 325
293 293 300 300 298 299 298 298 303 304 305 307 309 311 313 316 319 324 326 328 329 331 333 334 336 333 333 334 334 333 333 333 332 332 332 332 333 333 332 332 330 327 324 322 321 321 322 321 322
301 299 298 302 299 297 297 298 301 303 303 305 307 309 311 314 319 322 325 328 328 330 331 333 334 335 335 334 332 331 330 332 332 333 334 334 334 334 333 331 328 326 324 323 322 320 320 319 319
300 298 298 298 296 297 298 297 301 304 302 305 307 307 309 312 315 319 323 326 328 329 330 332 333 334 335 335 335 333 332 332 333 334 334 335 335 334 333 331 329 326 324 323 322 319 318 318 317
294 298 298 297 294 296 295 295 298 302 304 305 305 308 308 309 312 316 320 323 326 328 330 331 332 333 335 335 335 334 335 334 333 332 331 335 335 335 333 332 331 328 326 324 323 320 318 318 317
292 298 300 293 293 292 296 292 299 299 300 302 303 304 305 308 310 312 317 320 325 327 330 330 331 332 334 336 335 333 329 329 331 333 335 335 335 334 334 333 332 331 329 327 327 325 322 321 319
298 296 295 295 294 294 291 289 296 300 297 300 303 305 307 308 308 308 311 315 320 326 329 331 331 331 332 334 334 334 332 332 332 333 334 334 335 335 334 334 333 331 331 330 329 327 325 323 321
296 294 293 293 293 286 293 290 293 294 297 300 304 306 307 309 309 309 310 311 312 317 322 328 328 329 331 332 333 332 332 332 331 332 332 333 332 333 334 333 332 330 330 328 329 328 325 321 321
294 293 285 284 284 285 288 290 292 299 300 300 302 305 308 310 310 308 305 304 306 308 308 311 314 321 327 329 330 331 330 330 329 329 329 327 327 328 331 331 328 328 328 328 328 325 323 320 319
291 295 287 281 282 285 284 284 290 298 301 302 301 300 303 303 304 304 304 305 305 306 307 308 312 311 316 322 325 327 328 327 328 328 327 328 329 330 331 330 330 330 330 329 328 326 325 323 323
290 290 295 285 281 284 286 290 294 298 296 296 297 298 299 301 303 303 305 306 307 308 309 310 312 316 319 320 322 321 320 319 322 323 322 327 328 327 328 329 329 328 328 328 325 324 322 319 319
293 295 286 287 280 279 285 286 289 294 293 294 294 295 298 300 302 304 305 307 309 310 311 312 314 314 315 317 318 318 318 317 317 317 316 316 323 325 325 326 325 325 324 325 323 320 317 315 310
289 289 290 291 288 284 282 285 294 295 295 294 296 298 299 300 302 303 305 306 307 309 310 311 311 311 312 313 313 314 314 314 315 314 314 313 315 317 317 318 317 315 315 315 315 311 309 305 302
293 291 290 286 282 284 284 287 290 293 295 295 295 296 299 301 303 304 304 304 305 307 308 309 310 310 311 311 312 312 313 313 313 312 310 311 309 308 308 308 308 306 305 305 305 302 302 300 296
Wind_Speed
13 8 6 5 7 5 5 4 3 6 7 5 7 5 9 11 10 7 12 8 14 13 12 11 10 12 13 11 9 8 9 12 13 13 14 15 15 16 16 17 17 16 17 17 17 16 16 16 15
10 8 5 4 7 6 7 8 8 7 8 5 3 2 1 11 8 12 11 13 12 12 11 11 10 12 12 12 10 9 8 9 11 11 13 15 14 15 17 17 16 15 16 16 16 16 16 16 16
11 6 5 4 5 4 4 7 11 7 7 8 3 3 3 5 11 13 16 15 13 11 11 11 7 11 12 12 11 9 10 11 12 15 16 15 14 16 17 17 15 14 15 16 16 16 16 15 15
5 5 4 7 4 4 5 7 11 10 4 3 2 6 7 4 10 8 17 16 13 12 12 10 9 13 11 11 12 11 11 11 12 12 13 15 16 16 16 16 16 13 14 15 15 15 16 15 15
5 4 6 6 4 2 3 1 9 10 8 8 5 7 7 6 7 16 15 13 13 14 13 12 10 12 12 10 11 11 10 11 11 10 12 12 14 14 16 16 14 14 13 14 14 15 15 14 14
6 4 5 9 7 4 3 7 10 9 8 7 5 7 7 10 10 15 14 12 13 13 12 12 10 10 10 10 9 7 10 10 13 13 11 12 12 12 16 15 13 14 12 12 13 13 14 13 13
10 9 12 10 6 6 5 6 11 10 8 7 2 7 7 12 12 13 13 11 11 13 10 11 11 10 8 8 10 10 11 13 12 12 12 12 11 12 13 13 11 13 12 11 11 12 13 13 12
7 5 14 10 10 7 7 9 7 11 7 4 3 6 7 17 15 12 13 11 11 13 8 11 11 10 9 9 7 10 10 10 11 11 10 9 10 9 8 9 10 10 9 10 10 10 11 11 10
2 7 11 13 11 5 7 10 6 3 3 6 6 3 7 21 16 15 13 13 11 5 8 6 10 10 10 9 7 8 9 9 10 9 7 8 6 7 7 9 11 8 8 9 9 8 6 6 8
9 11 14 7 8 4 7 10 11 8 9 8 8 6 14 18 17 17 17 15 12 12 8 9 9 9 9 7 9 8 8 7 6 7 7 4 5 6 9 7 8 7 6 6 5 4 2 6 2
5 13 9 9 5 3 6 8 7 9 11 12 14 13 17 17 17 16 16 15 16 14 10 7 6 10 9 7 7 5 5 4 5 6 5 4 5 5 4 5 5 5 4 2 3 1 2 4 4
8 11 8 7 7 5 7 5 9 13 5 3 8 17 17 18 18 19 17 16 16 15 14 12 8 6 9 6 6 6 5 5 4 5 6 5 3 3 3 3 3 2 1 1 1 1 2 2 2
6 8 8 5 8 6 1 9 13 15 16 2 6 16 18 17 18 17 16 14 15 15 15 15 12 9 8 7 7 6 6 5 6 5 6 5 5 5 4 3 3 2 2 2 2 1 1 1 2
10 6 9 7 9 6 6 9 3 12 14 9 11 16 16 17 18 16 16 16 15 14 15 15 15 14 11 8 9 6 6 6 6 6 6 7 4 4 4 4 4 3 2 2 1 2 2 3 2
5 10 8 9 11 7 8 10 12 13 12 15 14 14 15 15 17 18 17 17 16 13 15 15 15 14 14 13 8 7 6 6 5 6 7 8 7 6 5 4 4 4 4 3 2 2 3 3 3
8 9 9 13 13 6 9 14 18 15 13 18 17 15 15 16 17 16 16 15 16 15 15 15 12 15 14 12 11 8 7 7 7 7 7 10 10 9 7 5 5 4 4 4 4 3 3 3 4
13 11 14 10 15 7 13 10 16 12 15 16 16 16 14 13 15 15 16 16 16 17 16 15 16 16 16 13 10 11 11 9 8 7 8 10 11 10 8 6 5 5 4 3 1 1 2 3 3
14 7 18 17 13 13 13 16 7 9 14 17 15 15 15 15 16 15 16 15 16 15 16 16 14 15 15 10 10 9 8 8 9 9 8 11 9 11 9 7 5 4 3 3 2 3 2 3 3
14 20 17 15 9 13 18 16 17 10 11 14 16 15 15 16 15 16 16 15 15 15 16 17 17 15 12 10 9 8 9 8 9 9 11 10 10 11 9 7 6 7 6 6 6 3 4 3 2
19 18 17 4 7 10 13 18 17 15 13 16 16 16 17 16 17 17 18 17 17 17 16 17 16 16 14 9 9 9 8 8 8 8 9 11 10 10 8 9 7 8 6 7 7 7 3 3 4
10 21 15 9 9 8 5 14 16 18 14 13 14 15 16 17 18 17 17 18 17 18 18 17 17 16 15 15 9 8 8 8 7 9 8 8 10 9 11 10 8 8 7 6 7 8 9 5 4
16 8 9 11 12 7 13 7 14 21 22 17 18 18 17 16 13 13 17 17 17 17 15 15 16 16 15 16 12 13 10 9 8 8 7 7 10 10 11 10 9 9 7 8 8 7 9 7 7
9 11 7 12 11 3 8 7 11 10 22 24 20 18 19 17 16 16 15 15 15 14 13 13 14 14 14 13 14 10 11 8 7 8 8 8 8 9 10 10 10 10 8 9 10 9 10 8 6
13 18 12 6 4 8 15 12 9 11 18 19 20 22 20 18 16 14 10 9 9 6 8 9 12 14 14 13 13 13 12 11 8 8 5 5 5 7 10 9 8 6 7 8 7 7 7 7 6
12 20 6 6 8 8 2 14 13 8 13 16 15 20 19 17 16 12 12 9 9 10 10 9 11 12 10 11 12 13 13 14 14 11 6 7 7 6 7 8 8 6 7 7 6 6 6 6 6
21 17 7 9 7 7 1 10 7 16 15 11 7 6 6 2 2 6 9 10 10 10 11 11 11 11 11 11 12 10 10 8 8 6 4 5 5 5 6 7 8 8 7 7 7 6 6 6 5
19 23 5 7 3 2 8 8 9 11 11 9 10 8 6 7 7 7 6 7 8 8 9 10 10 9 10 11 10 6 4 4 4 3 1 3 4 4 6 7 6 6 6 6 5 4 5 4 4
14 12 7 4 8 6 5 5 8 9 8 8 10 11 11 9 7 7 7 7 6 7 7 7 8 8 7 7 8 7 7 6 5 5 6 6 5 3 5 4 4 2 3 3 4 3 2 3 2
13 16 9 8 3 3 4 4 3 4 5 9 8 9 11 9 9 9 8 8 7 7 8 8 8 9 8 7 5 6 5 4 3 3 3 3 3 2 5 2 2 3 2 1 2 3 4 6 5
20 19 17 7 5 1 1 2 3 3 4 6 6 3 4 8 10 10 9 9 8 8 7 8 7 7 6 6 6 5 5 5 4 4 4 2 2 2 2 3 3 3 3 3 5 6 5 7 8
Wind_Direction
279 282 291 257 249 254 124 139 81 127 142 62 77 309 48 27 5 61 134 129 134 130 126 131 102 104 105 98 93 89 91 95 105 101 102 96 89 85 86 84 80 75 74 71 70 68 65 64 63
306 304 242 279 263 225 127 131 150 142 71 122 117 180 113 76 66 126 126 141 129 127 127 133 114 109 112 104 92 85 88 83 87 96 103 103 99 88 86 83 79 77 76 71 69 66 64 62 60
274 274 279 294 268 289 107 172 133 121 138 162 138 337 18 69 115 141 122 138 135 129 118 109 100 127 116 109 99 80 69 74 74 81 79 81 93 89 83 80 79 74 73 74 70 68 63 59 65
275 206 213 251 235 70 15 160 137 141 156 187 294 114 100 343 123 117 144 141 140 127 121 122 110 115 118 112 101 95 84 79 74 78 82 80 81 90 86 80 76 74 75 73 69 65 59 59 66
243 262 255 240 217 142 141 144 157 172 157 166 194 119 96 117 104 134 144 148 143 135 129 139 122 117 115 114 115 111 101 100 97 86 82 86 85 87 87 81 75 75 66 71 65 61 56 60 63
224 263 229 238 193 148 168 176 186 184 162 137 199 139 114 129 145 151 149 151 151 132 143 136 129 120 116 112 101 98 123 108 90 80 87 75 71 75 86 80 70 72 69 71 67 64 60 66 62
245 217 226 227 239 191 186 188 197 187 182 178 97 170 108 162 151 158 154 154 154 134 141 144 146 134 119 120 111 98 97 100 93 90 81 75 69 66 84 86 79 76 70 69 73 71 69 70 64
272 257 240 219 206 212 144 181 211 201 176 71 187 181 170 164 154 172 156 161 158 140 168 157 148 159 153 145 110 106 100 95 97 94 94 96 93 92 92 105 85 80 79 76 78 78 75 73 65
285 233 223 220 226 196 151 187 202 54 149 202 173 338 80 133 151 175 164 166 161 132 168 166 156 157 150 144 126 109 103 110 113 118 130 173 123 126 117 62 86 79 75 70 70 74 79 104 103
219 222 225 221 219 199 178 211 168 190 186 196 178 117 130 142 161 174 176 173 171 179 191 168 181 163 155 150 160 155 145 160 144 148 168 128 124 68 97 89 88 85 85 85 80 92 225 244 45
207 232 220 195 210 188 190 208 184 215 204 204 198 164 156 157 173 181 184 183 184 179 177 192 208 168 165 160 177 161 173 155 157 156 156 135 128 155 166 141 161 160 210 171 182 174 29 27 6
218 237 197 168 163 174 192 202 203 217 197 10 200 164 167 175 186 186 191 189 184 181 180 185 187 202 181 165 194 172 169 173 170 171 169 159 171 170 158 159 136 177 206 148 247 82 30 22 36
237 186 211 170 170 200 173 217 223 212 229 132 196 157 179 188 192 194 194 194 187 187 186 181 188 184 187 198 209 177 179 186 187 174 185 191 176 183 176 157 176 175 176 218 222 235 302 324 328
211 191 193 185 183 175 212 229 222 224 225 190 179 185 187 193 194 193 197 199 193 192 190 184 188 190 184 190 202 203 196 194 190 190 190 211 194 189 194 176 190 185 196 176 247 269 275 286 293
244 195 200 187 204 206 202 228 228 244 204 198 194 192 192 197 192 202 199 197 198 197 192 188 188 204 188 191 199 213 207 197 207 203 204 199 210 203 207 199 196 201 172 189 221 232 254 267 254
224 208 194 205 196 187 191 244 224 223 195 205 197 195 195 195 203 202 202 200 203 194 196 194 192 199 200 198 184 200 206 202 209 208 221 205 209 212 204 208 211 199 192 194 205 220 243 262 285
212 195 200 166 200 159 200 237 240 212 203 215 204 199 196 205 205 203 202 197 203 196 200 196 193 200 200 202 199 196 199 208 211 212 197 224 211 212 219 214 214 193 203 204 235 312 309 324 300
185 215 199 207 191 201 193 231 179 201 215 220 206 206 204 207 206 205 201 200 198 198 195 200 198 199 202 201 203 205 202 200 210 215 215 211 216 211 214 217 199 184 189 210 187 228 226 255 270
203 198 198 212 162 194 217 224 235 186 213 224 220 213 211 213 203 199 199 200 200 200 200 203 198 202 195 202 200 205 210 210 217 219 217 208 216 206 208 212 201 192 197 203 194 198 234 240 216
226 202 209 174 144 225 222 232 233 218 212 221 220 216 212 205 200 195 192 197 201 201 206 206 206 201 200 200 204 210 214 211 224 221 220 218 216 219 201 209 203 190 197 203 191 187 185 230 165
237 206 197 198 169 235 289 253 237 235 213 225 233 241 221 218 206 192 194 196 201 202 203 207 206 204 205 204 200 205 224 212 210 224 221 215 221 212 212 218 213 204 206 208 204 190 201 215 191
199 216 226 153 173 212 191 260 208 216 220 221 225 223 228 224 228 208 193 203 200 203 203 204 208 209 207 202 209 205 212 217 216 220 218 215 211 218 221 221 215 215 206 218 215 204 213 210 221
204 154 161 187 209 304 189 246 252 226 214 215 217 223 222 221 212 211 209 198 211 196 200 205 209 211 208 209 208 213 211 222 232 219 219 205 216 215 226 221 222 218 215 219 220 203 208 209 220
144 128 124 146 193 241 225 213 234 191 220 225 218 218 223 219 218 212 194 185 195 179 193 201 209 211 207 206 206 217 219 220 231 227 220 209 219 216 218 225 225 215 218 221 226 226 208 209 217
209 160 139 186 201 232 8 217 247 248 215 231 231 225 222 220 213 191 187 190 193 180 188 194 205 213 206 204 210 214 217 224 227 229 213 218 229 224 215 211 213 222 228 236 230 222 215 210 209
222 193 163 177 189 182 106 225 239 240 243 235 237 289 314 154 215 208 200 197 193 190 191 189 190 196 196 198 205 214 219 226 230 224 214 217 221 212 225 235 220 220 222 238 226 213 213 212 215
212 216 105 97 37 147 196 235 276 250 224 222 208 198 198 195 204 188 168 177 176 184 191 194 185 185 183 191 195 193 173 174 201 205 231 254 245 235 236 231 227 218 219 221 227 208 204 189 205
224 193 170 205 159 210 187 253 237 203 187 197 200 207 213 184 174 162 159 147 146 147 143 150 158 161 159 170 180 189 191 197 214 224 228 230 243 247 249 240 241 224 221 221 194 173 171 152 88
217 195 213 203 212 213 163 223 167 202 158 186 187 194 200 182 178 164 148 140 139 142 147 142 141 143 150 154 153 162 163 171 183 217 239 248 254 268 267 323 301 281 280 340 154 109 100 99 89
225 210 202 192 187 19 23 253 158 212 221 202 191 164 182 163 161 154 154 152 153 150 146 152 147 141 140 143 151 148 143 139 123 103 75 74 135 50 34 44 77 62 48 46 79 81 76 94 92